COSMOS 2251 DEB, 34007

Orbit data source: Space-Track

COSMOS 2251 DEB, 34007 is space debris in LEO originally from a launch on Wed, 16 Jun 1993 UTC launched from the Plesetsk Missile And Space Complex (PKMTR). The debris from Iridium 33, an American commercial communications satellite, has been tracked extensively since its accidental collision with the defunct Russian satellite Cosmos 2251 in 2009. This event, occurring at high speed in low Earth orbit (LEO), generated thousands of pieces of space debris, significantly increasing the risk of further collisions. The Iridium 33 debris cloud has impacted space traffic management and orbital debris mitigation strategies, making it a subject of ongoing study in space situational awareness.

Loading next visibility...
Identifier
34007, 1993-036GS
Orbit
LEO
Country
Flag of CISCIS
Related business
Manufacturer
Unknown
Mission
Spacecraft
Bus & Motor
Unknown
Mass
Unknown
Launch date (UTC)
1993-06-16 (33 years ago)
Launch vehicle
Unknown
Launch site
Plesetsk Missile And Space Complex (PKMTR)
Object type
Payload
Rocket body
Debris
Shape & HBR
Unknown shape, 0.2 m
Radar Cross Section
Small (<0.1 m²)

Expand to show TLE details & history
Last TLE update: 10 hours ago

TLE from 10 hours ago
0 COSMOS 2251 DEB
1 34007U 93036GS  26034.56398220  .00003423  00000-0  63034-3 0  9996
2 34007  74.0161 245.1728 0045817   5.0391 355.1228 14.65302862898533
Epoch: 2026-02-03T13:32Z
TLE epoch observation values (Epoch: 2026-02-03T13:32:08.062Z)
Latitude
-0.00004°
Longitude
-91.60391°
Altitude
646.541 km
Speed
7.552 km/s
True Right ascension
16h 20m 41s
True Declination
0° 00' 00"
Sunlit
Object was in daylight at epoch
Visualization orbit readout
Latitude
Unknown
Longitude
Unknown
Altitude
Unknown
Speed
Unknown
Apparent Right ascension
Unknown
Apparent Declination
Unknown
Sunlit
N/A
Visualization observer readout
Local Sidereal Time
01:44:56
Azimuth
Unknown
Elevation
Unknown
Doppler factor
Unknown
Orbital elements
Apogee altitude
706.006 km
Perigee altitude
641.387 km
Semi-major axis
7,051.834 km
Eccentricity
0.00458
Inclination
74.0161°
RAAN
245.1728°
Arg. of periapsis
5.0391°
True anomaly
355.07791°
Mean anomaly
355.1228°
Eccentric anomaly
355.10038°
Mean motion
3.66514 °/min
Orbital period
98.22 mins
BSTAR
0.00063034
Loading maneuver chart data...
Computing Atmospheric mass density...

Documentation

Showing up to 5 results
|